Regional Weather Roundup
Issued by NWS Cleveland, OH

Home | Current Version | Previous Version | Graphics & Text | Print | Product List | Glossary On
Versions: 1 2 3 4 5 6 7 8 9 10 11 12 13 14 15 16 17 18 19 20 21 22 23 24 25 26 27 28 29 30 31 32 33 34 35 36 37 38 39 40 41 42 43 44 45 46 47 48 49 50
430
ASUS41 KCLE 172112
RWRCLE
OHIO REGIONAL WEATHER ROUNDUP
NATIONAL WEATHER SERVICE WILMINGTON, OH
400 PM EST FRI NOV 17 2017

NOTE: "FAIR" INDICATES FEW OR NO CLOUDS BELOW 12,000 FEET WITH NO
SIGNIFICANT WEATHER AND/OR OBSTRUCTIONS TO VISIBILITY.

OHZ001>008-015>018-024>027-034-035-043-044-172200-
   NORTHWEST OHIO

CITY           SKY/WX    TMP DP  RH WIND       PRES   REMARKS
DEFIANCE       FAIR      45  32  60 S10G17    29.98F
FINDLAY        FAIR      46  32  58 SE16      30.00F
TOLEDO EXPRESS FAIR      45  35  68 SE6       29.99F
TOLEDO EXEC    FAIR      45  33  63 S12       30.02F
LIMA           FAIR      45  34  65 SE16      29.99F
$$

OHZ009>014-019>023-028>033-038-089-172200-
   NORTHEAST OHIO

CITY           SKY/WX    TMP DP  RH WIND       PRES   REMARKS
CLE-HOPKINS    CLOUDY    44  29  55 S15       30.07F
CLE-LAKEFRONT  FAIR      45  28  51 SE15      30.04F
CUY CO. ARPT   PTCLDY    46  28  49 S16       30.07F
LORAIN-ELYRIA  FAIR      43  27  53 S14       30.04F
ASHTABULA      FAIR      41  29  62 S10       30.09F
AKRON-CANTON   MOCLDY    43  28  55 S10       30.09F
WOOSTER        FAIR      43  31  62 S7        30.07F
MANSFIELD      FAIR      44  30  57 SE15      30.03F
YOUNGSTOWN     CLOUDY    41  28  60 SE10      30.08F
$$

OHZ042-051>053-060>062-070>072-077>081-172200-
  SOUTHWEST OHIO

CITY           SKY/WX    TMP DP  RH WIND       PRES   REMARKS
CINC-COVINGTON PTSUNNY   49  35  58 SE10      30.01F
CINC-LUNKEN    FAIR      50  35  56 S6        30.04F
HAMILTON       FAIR      51  33  50 S5        30.03F
DAYTON         PTSUNNY   46  34  62 SE10      30.01F
WRIGHT-PAT AFB FAIR      48  31  53 SE12      30.01F
DAYTON GENERAL FAIR      48  33  56 SE10      30.00F
WILMINGTON     FAIR      47  33  58 SE12      30.02F
$$

OHZ036-037-039>041-045>050-054>059-063>069-073>076-082>088-172200-
  CENTRAL AND SOUTHEAST OHIO

CITY           SKY/WX    TMP DP  RH WIND       PRES   REMARKS
COLUMBUS       PTSUNNY   48  32  53 SE13      30.05F
OSU AIRPORT    FAIR      47  33  58 SE12      30.04F
BOLTON FIELD   SUNNY     46  32  57 SE8       30.06F
RICKENBACK AFB FAIR      48  32  53 SE10      30.05F
NEWARK         FAIR      48  30  49 SE9       30.07F
MARION         FAIR      44  31  60 S16G22    30.03F
LANCASTER      FAIR      47  32  56 SE10      30.07F
ZANESVILLE     FAIR      47  30  51 S9        30.09F
NEW PHILLY     FAIR      45  29  53 SE9       30.11F
$$




USA.gov is the U.S. government's official web portal to all federal, state and local government web resources and services.